Home > Time Zones > World Clock > Weather > Italy > Siena > Past weeks

Flag for Italy Weather past 2 weeks in Siena, Italy

63 °F

Light rain. Passing clouds.

Feels Like: 63 °F
Forecast: 58 / 62 °F
Wind: 1 mph from North

Location: Florence / Peretola

Current Time: Oct 14, 2015 at 1:18:18 AM

Latest Report: Oct 14, 2015 at 12:20 AM

Visibility: 4 mi

Pressure: 29.83 "Hg

Humidity: 100%

Dew point: 63 °F

Location of SienaLocation

Historic Weather in Siena — Graph


Siena temperature yesterday

Maximum temperature yesterday: 66 °F (at 12:20 PM)
Minimum temperature yesterday: 61 °F (at 12:20 AM)
Average temperature yesterday: 63 °F

Past Weeks' High & Low Weather Summary

High79 °F (Oct 5, 3:20 PM)100% (Oct 2, 8:20 PM)30.27 "Hg (Oct 2, 8:20 PM)
Low50 °F (Oct 9, 6:20 AM)36% (Oct 11, 3:20 PM)29.62 "Hg (Oct 10, 4:20 PM)
Average64 °F75%29.99 "Hg
* Reported Sep 28 11:20 PM — Oct 13 11:50 PM, Siena, Weather by CustomWeather, © 2015

Note: Actual official high and low records may vary slightly from our data, if they occured in-between our weather recording intervals... More about our weather records


Siena weather history for previous 24 hours

Time TempWeatherWind HumidityBarometerVisibility
11:50 PM
Tue, Oct 13
63 °FRain. Passing clouds.3 mph100%29.83 "Hg3 mi
11:20 PM63 °FLight rain. Passing clouds.2 mph94%29.83 "Hg5 mi
10:50 PM63 °FPassing clouds.1 mph94%29.83 "Hg6 mi
10:20 PM63 °FPassing clouds.No wind94%29.83 "HgN/A
9:50 PM63 °FPassing clouds.5 mph94%29.83 "HgN/A
9:20 PM63 °FPassing clouds.5 mph94%29.83 "HgN/A
8:50 PM63 °FPassing clouds.3 mph94%29.83 "HgN/A
8:20 PM63 °FPassing clouds.3 mph94%29.83 "HgN/A
7:50 PM63 °FPassing clouds.5 mph94%29.86 "HgN/A
7:20 PM64 °FScattered clouds.7 mph94%29.83 "HgN/A
6:50 PM64 °FPartly sunny.5 mph94%29.86 "HgN/A
6:20 PM64 °FScattered clouds.5 mph94%29.86 "HgN/A
5:50 PM66 °FPartly sunny.5 mph88%29.86 "HgN/A
5:20 PM66 °FPartly sunny.3 mph94%29.86 "HgN/A
4:50 PM64 °FPartly sunny.5 mph100%29.86 "HgN/A
4:20 PM64 °FPartly sunny.2 mph100%29.86 "HgN/A
3:50 PM64 °FPartly sunny.2 mph100%29.86 "HgN/A
3:20 PM63 °FRain. Broken clouds.5 mph100%29.86 "Hg3 mi
2:50 PM63 °FRain. Broken clouds.5 mph100%29.86 "Hg3 mi
2:20 PM63 °FRain. Broken clouds.7 mph100%29.86 "Hg2 mi
1:50 PM64 °FRain. Broken clouds.6 mph94%29.86 "Hg3 mi
1:20 PM66 °FRain. Broken clouds.3 mph94%29.86 "Hg3 mi
12:50 PM66 °FBroken clouds.7 mph88%29.89 "HgN/A
12:20 PM66 °FBroken clouds.8 mph88%29.86 "HgN/A
11:50 AM64 °FBroken clouds.3 mph94%29.89 "HgN/A
11:20 AM64 °FBroken clouds.1 mph94%29.89 "HgN/A
10:50 AM64 °FLight rain. Broken clouds.3 mph94%29.89 "HgN/A
10:20 AM63 °FLight rain. Broken clouds.8 mph94%29.89 "HgN/A
9:50 AM63 °FBroken clouds.9 mph94%29.89 "HgN/A
9:20 AM63 °FLight rain. Broken clouds.9 mph94%29.89 "HgN/A
8:50 AM63 °FRain. Broken clouds.8 mph94%29.89 "Hg3 mi
8:20 AM63 °FPartly cloudy.8 mph94%29.89 "HgN/A
7:50 AM63 °FPassing clouds.8 mph94%29.89 "HgN/A
7:20 AM61 °FPartly cloudy.5 mph100%29.89 "HgN/A
6:50 AM61 °FPartly cloudy.7 mph100%29.92 "Hg4 mi
6:20 AM61 °FPartly cloudy.2 mph94%29.92 "Hg5 mi
5:50 AM61 °FLight rain. Partly cloudy.3 mph94%29.92 "Hg5 mi
4:50 AM61 °FLight rain. Partly cloudy.No wind94%29.95 "Hg5 mi
4:20 AM61 °FLight rain. Partly cloudy.2 mph94%29.95 "Hg5 mi
3:50 AM61 °FLight rain. Partly cloudy.2 mph94%29.98 "Hg5 mi
3:20 AM61 °FPartly cloudy.3 mph94%29.98 "Hg4 mi
2:50 AM61 °FPartly cloudy.1 mph94%29.98 "Hg5 mi
2:20 AM61 °FPartly cloudy.No wind94%29.98 "Hg5 mi
1:50 AM61 °FPartly cloudy.1 mph94%29.98 "Hg5 mi
1:20 AM61 °FPartly cloudy.1 mph94%29.98 "Hg5 mi
Weather by CustomWeather, © 2015

See weather overviewHow to use our weather pages